Weather History for Hereford, TX

Change the Weather History Date:

Friday, March 8, 2013

  Actual Average (KAMA) Record (KAMA)
Temperature  
Mean Temperature 62 °F 46 °F  
Max Temperature 77 °F 60 °F 83 °F (1918)
Min Temperature 46 °F 31 °F 7 °F (1967)
Degree Days  
Heating Degree Days 4 19  
Month to date heating degree days 162  
Since 1 July heating degree days 3439  
Cooling Degree Days 0 0  
Month to date cooling degree days 0  
Year to date cooling degree days 0  
Growing Degree Days 12 (Base 50)    
Moisture  
Dew Point 36 °F    
Average Humidity 47    
Maximum Humidity 82    
Minimum Humidity 16    
Precipitation  
Precipitation 0.06 in 0.04 in 1.16 in (2001)
Month to date precipitation 0.27  
Year to date precipitation 1.55  
Snow  
Snow 0.00 in 0.10 in 4.20 in (1976)
Month to date snowfall 0.7  
Since 1 July snowfall 14.7  
Snow Depth -    
Sea Level Pressure  
Sea Level Pressure 29.89 in    
Wind  
Wind Speed 13 mph (SSW)    
Max Wind Speed 25 mph    
Max Gust Speed 38 mph    
Visibility 10 miles    
Events Rain , Thunderstorm    
T = Trace of Precipitation, MM = Missing Value Source: NWS Daily Summary

Daily Weather History Graph

Daily Weather History Graph

Search for Another Location

Airport:

Trip Planner

Search our weather history database for the weather conditions in past years. The results will help you decide how hot, cold, wet, or windy it might be!

Date:

Astronomy

Mar. 08, 2013 Rise Set
Actual Time 7:09 AM CST 6:51 PM CST
Civil Twilight 6:43 AM CST 7:16 PM CST
Nautical Twilight 6:14 AM CST 7:45 PM CST
Astronomical Twilight 5:45 AM CST 8:15 PM CST
Moon 4:48 AM CST (3/8) 3:54 PM CST (3/8)
Length of Visible Light 12h 32m
Length of Day
11h 42m
Waning Crescent, 11% of the Moon is Illuminated
Mar 8
Waning Crescent
Mar 11
New
Mar 19
First Quarter
Mar 27
Full
Apr 2
Last Quarter

Hourly Weather History & Observations

Time (CST) Temp. Dew Point Humidity Pressure Visibility Wind Dir Wind Speed Gust Speed Precip Events Conditions
12:15 AM 54.1 °F 29.8 °F 39% 29.98 in 10.0 mi South 17.3 mph 23.0 mph N/A   Clear
12:35 AM 53.6 °F 30.9 °F 42% 29.98 in 10.0 mi South 20.7 mph 27.6 mph N/A   Clear
12:55 AM 52.9 °F 31.6 °F 44% 29.98 in 10.0 mi SSW 15.0 mph 21.9 mph N/A   Clear
1:15 AM 51.8 °F 32.0 °F 47% 29.98 in 10.0 mi SSW 15.0 mph - N/A   Clear
1:35 AM 51.1 °F 32.2 °F 48% 29.97 in 10.0 mi SSW 15.0 mph - N/A   Clear
1:55 AM 50.9 °F 32.9 °F 50% 29.98 in 10.0 mi SSW 13.8 mph - N/A   Clear
2:15 AM 50.9 °F 33.3 °F 51% 29.98 in 10.0 mi SSW 10.4 mph - N/A   Clear
2:35 AM 50.9 °F 33.8 °F 52% 29.98 in 10.0 mi SSW 8.1 mph - N/A   Clear
2:55 AM 50.9 °F 34.0 °F 52% 29.98 in 10.0 mi SW 9.2 mph - N/A   Clear
3:15 AM 50.9 °F 34.2 °F 53% 29.96 in 10.0 mi SW 9.2 mph - N/A   Clear
3:35 AM 50.5 °F 34.2 °F 53% 29.95 in 10.0 mi SW 8.1 mph - N/A   Clear
3:55 AM 50.4 °F 34.2 °F 54% 29.95 in 10.0 mi SW 5.8 mph - N/A   Clear
4:15 AM 50.0 °F 34.7 °F 56% 29.95 in 10.0 mi WSW 6.9 mph - N/A   Clear
4:35 AM 50.4 °F 34.9 °F 55% 29.95 in 10.0 mi SW 9.2 mph - N/A   Clear
4:55 AM 50.2 °F 35.2 °F 57% 29.95 in 10.0 mi SW 6.9 mph - N/A   Scattered Clouds
5:15 AM 49.8 °F 35.6 °F 58% 29.94 in 10.0 mi SSW 5.8 mph - N/A   Scattered Clouds
5:35 AM 49.3 °F 35.8 °F 60% 29.95 in 10.0 mi SW 5.8 mph - N/A   Scattered Clouds
5:55 AM 48.4 °F 35.6 °F 61% 29.95 in 10.0 mi SW 3.5 mph - N/A   Clear
6:15 AM 47.3 °F 35.8 °F 64% 29.95 in 10.0 mi SSW 4.6 mph - N/A   Clear
6:35 AM 46.6 °F 36.1 °F 67% 29.95 in 10.0 mi South 4.6 mph - N/A   Mostly Cloudy
6:55 AM 47.1 °F 36.5 °F 67% 29.95 in 10.0 mi SSW 3.5 mph - N/A   Overcast
7:15 AM 47.5 °F 36.9 °F 67% 29.96 in 10.0 mi SSW 4.6 mph - N/A   Overcast
7:35 AM 47.5 °F 37.4 °F 68% 29.95 in 10.0 mi Calm Calm - N/A   Overcast
7:55 AM 48.2 °F 38.1 °F 68% 29.98 in 10.0 mi South 8.1 mph - N/A   Scattered Clouds
8:15 AM 49.5 °F 38.5 °F 66% 29.95 in 10.0 mi South 3.5 mph - N/A   Mostly Cloudy
8:35 AM 51.4 °F 39.2 °F 63% 29.96 in 10.0 mi South 8.1 mph - N/A   Mostly Cloudy
8:55 AM 55.4 °F 38.7 °F 53% 29.96 in 10.0 mi South 11.5 mph - N/A   Overcast
9:15 AM 57.2 °F 39.9 °F 52% 29.95 in 10.0 mi South 10.4 mph - N/A   Overcast
9:35 AM 56.3 °F 40.5 °F 55% 29.96 in 10.0 mi South 12.7 mph - N/A   Overcast
9:55 AM 58.5 °F 40.8 °F 52% 29.95 in 10.0 mi South 8.1 mph - N/A   Overcast
10:15 AM 60.3 °F 40.8 °F 49% 29.95 in 10.0 mi South 15.0 mph - N/A   Overcast
10:35 AM 61.9 °F 40.5 °F 45% 29.95 in 10.0 mi South 12.7 mph - N/A   Overcast
10:55 AM 64.6 °F 39.7 °F 40% 29.94 in 10.0 mi SSW 13.8 mph - N/A   Mostly Cloudy
11:15 AM 69.3 °F 37.6 °F 31% 29.93 in 10.0 mi SSW 19.6 mph 25.3 mph N/A   Scattered Clouds
11:35 AM 71.2 °F 36.7 °F 28% 29.92 in 10.0 mi SSW 16.1 mph 20.7 mph N/A   Scattered Clouds
11:55 AM 73.2 °F 35.2 °F 25% 29.91 in 10.0 mi SW 17.3 mph 26.5 mph N/A   Scattered Clouds
12:15 PM 72.9 °F 33.3 °F 23% 29.91 in 10.0 mi SW 19.6 mph 33.4 mph N/A   Clear
12:35 PM 73.6 °F 31.3 °F 21% 29.89 in 10.0 mi SSW 20.7 mph 32.2 mph N/A   Clear
12:55 PM 74.3 °F 30.7 °F 20% 29.88 in 10.0 mi SSW 18.4 mph 29.9 mph N/A   Clear
1:15 PM 74.3 °F 29.3 °F 19% 29.87 in 10.0 mi SSW 16.1 mph 26.5 mph N/A   Clear
1:35 PM 75.7 °F 28.6 °F 18% 29.86 in 10.0 mi WSW 18.4 mph 26.5 mph N/A   Clear
1:55 PM 75.7 °F 27.3 °F 17% 29.84 in 10.0 mi SW 16.1 mph 23.0 mph N/A   Scattered Clouds
2:15 PM 76.5 °F 27.7 °F 17% 29.83 in 10.0 mi SW 17.3 mph 28.8 mph N/A   Scattered Clouds
2:35 PM 74.1 °F 27.5 °F 18% 29.82 in 10.0 mi SSW 12.7 mph 33.4 mph N/A   Scattered Clouds
2:55 PM 75.9 °F 27.5 °F 17% 29.82 in 10.0 mi SSW 23.0 mph 28.8 mph N/A   Scattered Clouds
3:15 PM 77.0 °F 27.1 °F 16% 29.81 in 10.0 mi SW 17.3 mph 29.9 mph N/A   Scattered Clouds
3:35 PM 76.5 °F 27.1 °F 16% 29.81 in 10.0 mi SW 20.7 mph 32.2 mph N/A   Scattered Clouds
3:55 PM 76.5 °F 27.5 °F 16% 29.80 in 10.0 mi SW 21.9 mph 28.8 mph N/A   Scattered Clouds
4:15 PM 76.1 °F 27.5 °F 17% 29.79 in 10.0 mi SSW 15.0 mph 27.6 mph N/A   Clear
4:35 PM 73.9 °F 27.9 °F 18% 29.79 in 10.0 mi SW 23.0 mph 29.9 mph N/A   Scattered Clouds
4:55 PM 74.3 °F 28.8 °F 19% 29.78 in 10.0 mi SW 16.1 mph 26.5 mph N/A   Mostly Cloudy
5:15 PM 73.6 °F 30.0 °F 20% 29.78 in 10.0 mi SSW 19.6 mph 28.8 mph N/A   Mostly Cloudy
5:35 PM 72.1 °F 30.6 °F 22% 29.78 in 10.0 mi SSW 23.0 mph 28.8 mph N/A   Mostly Cloudy
5:55 PM 72.0 °F 30.7 °F 22% 29.77 in 10.0 mi SSW 18.4 mph 29.9 mph N/A   Mostly Cloudy
6:15 PM 71.1 °F 32.0 °F 24% 29.77 in 10.0 mi South 17.3 mph 27.6 mph N/A   Mostly Cloudy
6:35 PM 70.0 °F 34.0 °F 27% 29.77 in 10.0 mi South 19.6 mph 23.0 mph N/A   Overcast
6:55 PM 69.1 °F 34.9 °F 28% 29.78 in 10.0 mi SSW 11.5 mph - N/A   Overcast
7:15 PM 63.5 °F 43.9 °F 49% 29.82 in 7.0 mi SW 19.6 mph 38.0 mph N/A Rain Rain
7:35 PM 58.6 °F 47.1 °F 66% 29.85 in 10.0 mi SW 20.7 mph 36.8 mph 0.01 in Rain Light Rain
7:55 PM 58.5 °F 46.0 °F 63% 29.82 in 10.0 mi SSW 11.5 mph - 0.01 in   Scattered Clouds
8:15 PM 57.0 °F 46.4 °F 68% 29.81 in 10.0 mi SW 9.2 mph - N/A   Scattered Clouds
8:35 PM 56.8 °F 46.8 °F 69% 29.83 in 10.0 mi SW 17.3 mph 27.6 mph N/A Rain Light Rain
8:55 PM 56.3 °F 46.8 °F 70% 29.82 in 10.0 mi SW 11.5 mph - N/A Rain Rain
9:15 PM 57.7 °F 46.4 °F 66% 29.86 in 10.0 mi WSW 25.3 mph 29.9 mph N/A Rain Light Rain
9:35 PM 55.6 °F 47.3 °F 74% 29.81 in 10.0 mi West 15.0 mph - 0.01 in   Scattered Clouds
9:55 PM 53.6 °F 47.3 °F 79% 29.83 in 10.0 mi WSW 8.1 mph - 0.01 in   Scattered Clouds
10:15 PM 53.6 °F 47.7 °F 80% 29.86 in 10.0 mi WSW 8.1 mph - N/A Rain Rain
10:35 PM 54.3 °F 47.1 °F 77% 29.84 in 7.0 mi WSW 4.6 mph - 0.01 in Rain Rain
10:55 PM 53.8 °F 47.5 °F 79% 29.84 in 10.0 mi SSW 9.2 mph - 0.02 in   Overcast
11:15 PM 53.6 °F 48.0 °F 81% 29.84 in 10.0 mi WSW 12.7 mph - 0.01 in Rain , Thunderstorm Light Thunderstorms and Rain
11:35 PM 53.2 °F 47.8 °F 82% 29.83 in 10.0 mi SW 8.1 mph - 0.02 in Rain Light Rain
11:55 PM 52.9 °F 47.7 °F 82% 29.82 in 10.0 mi SSW 6.9 mph - 0.02 in   Overcast